Date String (YYYY-MM-DD hh:mm:ss) UTC,Instrument flags,Ambient pressure (hPa),Sample flow (lpm),Bypass flow (lpm),Sample temperature (°C),Ambient temperature (°C),ASC tube jacket temperature (°C),LED temperature (°C),Box temperature (°C),Sample RH (%),Span deviation,Mass concentration (μg/m³),Mass concentration (μg/m³),Mass concentration (μg/m³)
DateTimeUTC,F1_M11,P_M11,Q1_M11,Q2_M11,T1_M11,T2_M11,T3_M11,T4_M11,T5_M11,U1_M11,ZSPAN_M11,X0_M11,X2_M11,X1_M11
2022-02-10 18:00:00,,0824.4,5.01,0.00,25.4,24.6,00.0,34.2,27.2,12.0,0000.0,0007.74,0003.85,0003.35
2022-02-10 18:01:00,,0824.4,4.99,0.00,25.4,24.6,00.0,34.2,27.3,11.8,0000.0,0007.73,0003.86,0003.36
2022-02-10 18:02:00,,0824.5,5.00,0.00,25.4,24.6,00.0,34.3,27.3,11.7,0000.0,0007.97,0003.87,0003.36
2022-02-10 18:03:00,,0824.4,5.01,0.00,25.4,24.6,00.0,34.3,27.3,11.9,0000.0,0008.09,0003.87,0003.36
2022-02-10 18:04:00,,0824.5,4.98,0.00,25.4,24.6,00.0,34.3,27.3,11.8,0000.0,0008.07,0003.87,0003.36
2022-02-10 18:05:00,,0824.4,5.01,0.00,25.4,24.6,00.0,34.3,27.3,11.8,0000.0,0008.31,0003.86,0003.36
2022-02-10 18:06:00,,0824.4,5.00,0.00,25.4,24.6,00.0,34.3,27.3,11.6,0000.0,0008.49,0003.86,0003.36
2022-02-10 18:07:00,,0824.4,5.01,0.00,25.4,24.6,00.0,34.3,27.3,11.6,0000.0,0008.12,0003.88,0003.36
2022-02-10 18:08:00,,0824.4,5.00,0.00,25.4,24.6,00.0,34.3,27.3,12.0,0000.0,0008.05,0003.85,0003.35
2022-02-10 18:09:00,,0824.4,5.00,0.00,25.4,24.7,00.0,34.3,27.3,12.2,0000.0,0007.80,0003.76,0003.31
2022-02-10 18:10:00,,0824.3,5.00,0.00,25.4,24.7,00.0,34.3,27.3,12.2,0000.0,0007.81,0003.73,0003.28
2022-02-10 18:11:00,,0824.3,4.99,0.00,25.5,24.7,00.0,34.3,27.3,12.1,0000.0,0007.91,0003.71,0003.23
2022-02-10 18:12:00,,0824.3,5.01,0.00,25.5,24.7,00.0,34.4,27.3,12.1,0000.0,0007.66,0003.66,0003.18
2022-02-10 18:13:00,,0824.2,5.00,0.00,25.5,24.7,00.0,34.4,27.3,12.0,0000.0,0007.21,0003.60,0003.15
2022-02-10 18:14:00,,0824.2,5.01,0.00,25.5,24.7,00.0,34.4,27.3,12.0,0000.0,0006.91,0003.54,0003.11
2022-02-10 18:15:00,,0824.2,4.99,0.00,25.5,24.7,00.0,34.4,27.3,11.6,0000.0,0007.17,0003.52,0003.01
2022-02-10 18:16:00,,0824.2,5.02,0.00,25.5,24.7,00.0,34.4,27.4,11.4,0000.0,0006.96,0003.50,0002.89
2022-02-10 18:17:00,,0824.2,4.99,0.00,25.5,24.7,00.0,34.4,27.4,11.5,0000.0,0007.29,0003.44,0002.76
2022-02-10 18:18:00,,0824.2,5.01,0.00,25.5,24.7,00.0,34.4,27.4,11.6,0000.0,0007.47,0003.34,0002.62
2022-02-10 18:19:00,,0824.1,4.98,0.00,25.5,24.7,00.0,34.4,27.4,11.6,0000.0,0007.30,0003.23,0002.46
2022-02-10 18:20:00,,0824.1,5.01,0.00,25.5,24.7,00.0,34.4,27.3,11.8,0000.0,0007.25,0003.17,0002.33
2022-02-10 18:21:00,,0824.1,5.00,0.00,25.5,24.7,00.0,34.4,27.3,12.2,0000.0,0007.08,0003.15,0002.22
2022-02-10 18:22:00,,0824.1,4.98,0.00,25.5,24.7,00.0,34.4,27.3,12.8,0000.0,0006.79,0003.11,0002.19
2022-02-10 18:23:00,,0824.1,5.02,0.00,25.5,24.7,00.0,34.4,27.3,13.0,0000.0,0007.08,0003.18,0002.27
2022-02-10 18:24:00,,0824.0,4.98,0.00,25.5,24.7,00.0,34.4,27.3,13.0,0000.0,0007.27,0003.25,0002.38
2022-02-10 18:25:00,,0824.0,5.01,0.00,25.5,24.7,00.0,34.4,27.3,13.1,0000.0,0007.34,0003.32,0002.50
2022-02-10 18:26:00,,0824.0,4.99,0.00,25.5,24.7,00.0,34.4,27.3,13.4,0000.0,0007.25,0003.37,0002.64
2022-02-10 18:27:00,,0824.1,5.02,0.00,25.5,24.7,00.0,34.4,27.3,13.2,0000.0,0007.16,0003.43,0002.79
2022-02-10 18:28:00,,0824.0,4.99,0.00,25.5,24.7,00.0,34.4,27.3,13.5,0000.0,0006.69,0003.51,0002.94
2022-02-10 18:29:00,,0824.0,5.01,0.00,25.4,24.7,00.0,34.4,27.3,13.4,0000.0,0006.78,0003.64,0003.11
2022-02-10 18:30:00,,0824.0,4.99,0.00,25.4,24.7,00.0,34.4,27.3,13.3,0000.0,0007.16,0003.79,0003.23
2022-02-10 18:31:00,,0823.9,5.00,0.00,25.4,24.7,00.0,34.4,27.3,13.3,0000.0,0007.34,0003.89,0003.33
2022-02-10 18:32:00,,0823.9,5.01,0.00,25.5,24.7,00.0,34.4,27.3,13.6,0000.0,0007.43,0003.98,0003.43
2022-02-10 18:33:00,,0823.8,4.99,0.00,25.4,24.7,00.0,34.4,27.2,13.5,0000.0,0007.94,0004.07,0003.50
2022-02-10 18:34:00,,0823.8,5.01,0.00,25.4,24.6,00.0,34.4,27.2,13.0,0000.0,0007.96,0004.06,0003.51
2022-02-10 18:35:00,,0823.8,5.01,0.00,25.4,24.6,00.0,34.4,27.2,13.2,0000.0,0007.99,0004.05,0003.50
2022-02-10 18:36:00,,0823.7,4.98,0.00,25.4,24.6,00.0,34.4,27.3,13.2,0000.0,0008.07,0004.06,0003.50
2022-02-10 18:37:00,,0823.6,5.01,0.00,25.4,24.7,00.0,34.4,27.3,13.3,0000.0,0008.13,0004.06,0003.50
2022-02-10 18:38:00,,0823.7,4.99,0.00,25.4,24.7,00.0,34.4,27.3,13.1,0000.0,0009.04,0004.08,0003.50
2022-02-10 18:39:00,,0823.7,5.01,0.00,25.4,24.7,00.0,34.4,27.3,13.5,0000.0,0009.44,0004.13,0003.52
2022-02-10 18:40:00,,0823.6,4.99,0.00,25.4,24.7,00.0,34.4,27.3,13.3,0000.0,0010.09,0004.13,0003.51
2022-02-10 18:41:00,,0823.6,5.01,0.00,25.4,24.7,00.0,34.4,27.3,13.4,0000.0,0010.38,0004.12,0003.50
2022-02-10 18:42:00,,0823.5,4.99,0.00,25.4,24.7,00.0,34.4,27.2,13.2,0000.0,0010.54,0004.13,0003.49
2022-02-10 18:43:00,,0823.4,5.00,0.00,25.4,24.7,00.0,34.4,27.2,13.6,0000.0,0010.48,0004.08,0003.46
2022-02-10 18:44:00,,0823.3,5.00,0.00,25.4,24.7,00.0,34.4,27.2,13.8,0000.0,0010.39,0004.11,0003.44
2022-02-10 18:45:00,,0823.3,4.99,0.00,25.4,24.7,00.0,34.4,27.2,12.7,0000.0,0010.92,0004.10,0003.40
2022-02-10 18:46:00,,0823.3,5.01,0.00,25.4,24.7,00.0,34.4,27.2,12.4,0000.0,0010.96,0004.02,0003.32
2022-02-10 18:47:00,,0823.3,5.01,0.00,25.4,24.7,00.0,34.4,27.2,12.3,0000.0,0010.76,0003.87,0003.21
2022-02-10 18:48:00,,0823.2,4.99,0.00,25.4,24.7,00.0,34.4,27.2,11.7,0000.0,0010.59,0003.76,0003.12
2022-02-10 18:49:00,,0823.2,5.01,0.00,25.4,24.7,00.0,34.4,27.2,10.7,0000.0,0009.51,0003.57,0002.87
2022-02-10 18:50:00,,0823.1,5.01,0.00,25.4,24.7,00.0,34.4,27.2,10.6,0000.0,0008.59,0003.33,0002.57
2022-02-10 18:51:00,,0823.1,4.99,0.00,25.4,24.7,00.0,34.4,27.2,10.2,0000.0,0007.57,0003.10,0002.26
2022-02-10 18:52:00,,0823.1,5.00,0.00,25.4,24.7,00.0,34.4,27.2,10.4,0000.0,0007.25,0002.75,0001.97
2022-02-10 18:53:00,,0823.0,5.02,0.00,25.4,24.7,00.0,34.4,27.2,10.6,0000.0,0006.54,0002.37,0001.69
2022-02-10 18:54:00,,0822.9,4.98,0.00,25.4,24.7,00.0,34.4,27.2,10.5,0000.0,0006.12,0002.06,0001.42
2022-02-10 18:55:00,,0822.9,5.01,0.00,25.4,24.7,00.0,34.4,27.2,10.4,0000.0,0005.08,0001.61,0001.16
2022-02-10 18:56:00,,0822.9,4.99,0.00,25.4,24.7,00.0,34.4,27.2,10.4,0000.0,0003.43,0001.24,0000.93
2022-02-10 18:57:00,,0822.8,5.00,0.00,25.4,24.6,00.0,34.4,27.2,10.4,0000.0,0002.63,0001.04,0000.79
2022-02-10 18:58:00,,0822.8,4.99,0.00,25.4,24.6,00.0,34.4,27.1,10.3,0000.0,0002.32,0000.88,0000.67
2022-02-10 18:59:00,,0822.6,4.99,0.00,25.4,24.6,00.0,34.4,27.1,10.3,0000.0,0002.00,0000.72,0000.56
